TimeEDT,TemperatureF,Dew PointF,Humidity,Sea Level PressureIn,VisibilityMPH,Wind Direction,Wind SpeedMPH,Gust SpeedMPH,PrecipitationIn,Events,Conditions,WindDirDegrees,DateUTC
12:53 AM,57.9,55.9,93,30.17,10.0,Calm,Calm,-,N/A,,Scattered Clouds,0,2012-03-17 04:53:00
1:53 AM,59.0,55.9,90,30.16,10.0,NNE,3.5,-,N/A,,Scattered Clouds,30,2012-03-17 05:53:00
2:53 AM,57.0,55.9,96,30.16,6.0,Calm,Calm,-,N/A,,Mostly Cloudy,0,2012-03-17 06:53:00
3:53 AM,55.0,54.0,96,30.15,4.0,Calm,Calm,-,N/A,,Mostly Cloudy,0,2012-03-17 07:53:00
4:38 AM,53.6,53.6,100,30.18,1.0,Calm,Calm,-,N/A,,Scattered Clouds,0,2012-03-17 08:38:00
4:53 AM,54.0,53.1,97,30.17,1.0,Calm,Calm,-,N/A,,Scattered Clouds,0,2012-03-17 08:53:00
5:19 AM,53.6,53.6,100,30.19,0.5,Calm,Calm,-,N/A,Fog,Fog,0,2012-03-17 09:19:00
5:29 AM,53.6,51.8,94,30.19,0.2,SSW,3.5,-,N/A,Fog,Fog,210,2012-03-17 09:29:00
5:46 AM,55.4,53.6,94,30.20,0.5,Calm,Calm,-,N/A,Fog,Fog,0,2012-03-17 09:46:00
5:53 AM,55.0,54.0,96,30.18,0.5,Calm,Calm,-,N/A,Fog,Fog,0,2012-03-17 09:53:00
6:00 AM,55.4,53.6,94,30.20,1.0,Calm,Calm,-,N/A,,Mostly Cloudy,0,2012-03-17 10:00:00
6:41 AM,53.6,51.8,94,30.20,0.5,SE,4.6,-,N/A,Fog,Fog,130,2012-03-17 10:41:00
6:49 AM,53.6,53.6,100,30.21,0.2,Calm,Calm,-,N/A,Fog,Fog,0,2012-03-17 10:49:00
6:53 AM,54.0,54.0,100,30.20,0.2,Calm,Calm,-,N/A,Fog,Fog,0,2012-03-17 10:53:00
7:00 AM,53.6,53.6,100,30.22,0.8,Calm,Calm,-,N/A,,Overcast,0,2012-03-17 11:00:00
7:10 AM,53.6,53.6,100,30.22,2.0,Calm,Calm,-,N/A,,Overcast,0,2012-03-17 11:10:00
7:16 AM,55.4,53.6,94,30.21,3.0,Calm,Calm,-,N/A,,Mostly Cloudy,0,2012-03-17 11:16:00
7:53 AM,55.0,54.0,96,30.21,5.0,East,3.5,-,N/A,,Mostly Cloudy,100,2012-03-17 11:53:00
8:53 AM,57.0,55.0,93,30.24,7.0,Calm,Calm,-,N/A,,Mostly Cloudy,0,2012-03-17 12:53:00
9:53 AM,57.0,55.9,96,30.26,4.0,Calm,Calm,-,0.01,Rain,Light Rain,0,2012-03-17 13:53:00
10:26 AM,57.2,57.2,100,30.28,2.5,Calm,Calm,-,0.08,Rain,Rain,0,2012-03-17 14:26:00
10:45 AM,57.2,57.2,100,30.29,2.5,Calm,Calm,-,0.12,Rain,Rain,0,2012-03-17 14:45:00
10:53 AM,57.9,57.0,97,30.27,2.5,Calm,Calm,-,0.15,Rain,Heavy Rain,0,2012-03-17 14:53:00
11:16 AM,57.2,57.2,100,30.28,2.5,SSE,4.6,-,0.03,Rain,Light Rain,160,2012-03-17 15:16:00
11:42 AM,59.0,57.2,94,30.27,4.0,South,3.5,-,0.04,Rain,Light Rain,170,2012-03-17 15:42:00
11:53 AM,60.1,57.9,93,30.26,4.0,South,6.9,-,0.04,Rain,Light Rain,190,2012-03-17 15:53:00
12:04 PM,60.8,59.0,94,30.28,6.0,SW,3.5,-,0.00,,Overcast,220,2012-03-17 16:04:00
12:53 PM,62.1,60.1,93,30.25,10.0,SSE,3.5,-,0.00,Rain,Light Rain,150,2012-03-17 16:53:00
1:53 PM,66.9,61.0,81,30.22,10.0,SW,8.1,-,0.01,,Partly Cloudy,220,2012-03-17 17:53:00
2:53 PM,71.1,59.0,66,30.19,10.0,SW,6.9,-,N/A,,Scattered Clouds,230,2012-03-17 18:53:00
3:53 PM,72.0,57.9,61,30.16,10.0,Calm,Calm,-,N/A,,Scattered Clouds,0,2012-03-17 19:53:00
4:53 PM,73.9,57.9,57,30.14,10.0,Calm,Calm,-,N/A,,Scattered Clouds,0,2012-03-17 20:53:00
5:53 PM,75.0,55.9,51,30.13,10.0,Calm,Calm,-,N/A,,Scattered Clouds,0,2012-03-17 21:53:00
6:53 PM,73.0,57.9,59,30.13,10.0,Calm,Calm,-,N/A,,Mostly Cloudy,0,2012-03-17 22:53:00
7:53 PM,71.1,57.0,61,30.14,10.0,Calm,Calm,-,N/A,,Mostly Cloudy,0,2012-03-17 23:53:00
8:53 PM,69.1,57.9,68,30.16,10.0,Calm,Calm,-,N/A,,Scattered Clouds,0,2012-03-18 00:53:00
9:53 PM,66.0,59.0,78,30.17,10.0,ENE,3.5,-,N/A,,Scattered Clouds,60,2012-03-18 01:53:00
10:53 PM,64.9,57.9,78,30.17,10.0,Calm,Calm,-,N/A,,Mostly Cloudy,0,2012-03-18 02:53:00
11:53 PM,64.9,57.9,78,30.17,10.0,Calm,Calm,-,N/A,,Overcast,0,2012-03-18 03:53:00